Hourly Data Report for July 26, 2021

IQALUIT CLIMATE
NUNAVUT
Current Station Operator: ECCC - MSC

63°44'50.000" N
68°32'40.000" W
33.50 m
2402592
71321
XFB

Download Data

Hourly Data (July 2021)
Hourly Data Report for July 26, 2021
TIME
LST
Temp Definition
°C
Dew Point Definition
°C
Rel Hum Definition
%
Precip. Amount Definition
mm

Wind Dir Definition
10's deg

Wind Spd Definition
km/h
Visibility Definition
km
Stn Press Definition
kPa
Hmdx Definition


Wind Chill Definition


Weather Definition


00:00 8.3 6.9 90 0.0 13 13   99.30     LegendNANA
01:00 7.4 6.3 93 0.0 12 10   99.34     LegendNANA
02:00 6.6 5.8 95 0.0 11 10   99.33     LegendNANA
03:00 6.5 5.8 95 0.0 15 12   99.36     LegendNANA
04:00 6.4 5.8 96 0.0 12 6   99.38     LegendNANA
05:00 6.6 6.0 96 0.0 18 4   99.39     LegendNANA
06:00 7.0 6.5 97 0.0 14 8   99.40     LegendNANA
07:00 6.3 5.8 97 0.0 15 8   99.45     LegendNANA
08:00 5.5 5.0 97 0.0 12 6   99.45     LegendNANA
09:00 9.2 8.1 93 0.0 15 14   99.44     LegendNANA
10:00 10.1 7.4 83 0.0 19 14   99.48     LegendNANA
11:00 10.3 7.8 85 0.0 10 4   99.49     LegendNANA
12:00 9.6 7.5 87 0.0 16 9   99.51     LegendNANA
13:00 9.9 7.7 86 0.0 15 8   99.53     LegendNANA
14:00 10.4 8.3 87 0.0 15 11   99.57     LegendNANA
15:00 11.1 8.5 84 0.0 13 10   99.60     LegendNANA
16:00 10.6 7.6 81 0.0 14 11   99.64     LegendNANA
17:00 10.5 7.5 82 0.0 13 6   99.69     LegendNANA
18:00 10.2 7.3 82 0.0 14 5   99.76     LegendNANA
19:00 10.7 7.4 80 0.0 11 4   99.81     LegendNANA
20:00 10.4 7.4 82 0.0 16 3   99.87     LegendNANA
21:00 9.4 7.1 85 0.0 14 3   99.91     LegendNANA
22:00 9.3 6.8 84 0.0 15 2   99.95     LegendNANA
23:00 10.5 6.1 74 0.0 25 10   100.00     LegendNANA

Notes on Data Quality.

Legend

  • E = Estimated
  • M = Missing
  • NA = Not Available*
  • [empty] = Indicates an unobserved value
Date modified: